TimeCDT,TemperatureF,Dew PointF,Humidity,Sea Level PressureIn,VisibilityMPH,Wind Direction,Wind SpeedMPH,Gust SpeedMPH,PrecipitationIn,Events,Conditions,WindDirDegrees,DateUTC
12:53 AM,43.0,39.9,89,29.87,10.0,SSW,6.9,-,N/A,,Clear,210,2013-10-18 05:53:00
1:53 AM,42.1,39.0,89,29.86,10.0,SW,6.9,-,N/A,,Clear,220,2013-10-18 06:53:00
2:53 AM,42.1,39.0,89,29.85,10.0,SW,8.1,-,N/A,,Clear,220,2013-10-18 07:53:00
3:53 AM,43.0,37.9,82,29.85,10.0,SW,6.9,-,N/A,,Clear,230,2013-10-18 08:53:00
4:53 AM,42.1,37.0,82,29.84,10.0,SW,5.8,-,N/A,,Clear,230,2013-10-18 09:53:00
5:53 AM,43.0,37.9,82,29.83,10.0,SW,6.9,-,0.01,,Scattered Clouds,230,2013-10-18 10:53:00
6:53 AM,43.0,36.0,76,29.84,10.0,WSW,6.9,-,N/A,,Clear,240,2013-10-18 11:53:00
7:53 AM,42.1,37.0,82,29.86,9.0,West,9.2,-,N/A,,Clear,260,2013-10-18 12:53:00
8:53 AM,45.0,39.0,80,29.88,9.0,West,11.5,-,N/A,,Clear,260,2013-10-18 13:53:00
9:53 AM,48.9,42.1,77,29.90,9.0,West,11.5,21.9,N/A,,Clear,260,2013-10-18 14:53:00
10:46 AM,50.0,42.8,76,29.89,10.0,WSW,12.7,-,N/A,,Mostly Cloudy,250,2013-10-18 15:46:00
10:53 AM,50.0,42.1,74,29.91,10.0,WSW,12.7,20.7,N/A,,Mostly Cloudy,250,2013-10-18 15:53:00
11:53 AM,50.0,41.0,71,29.92,10.0,West,10.4,-,N/A,,Overcast,260,2013-10-18 16:53:00
12:53 PM,48.9,41.0,74,29.91,10.0,West,13.8,19.6,N/A,,Overcast,260,2013-10-18 17:53:00
1:53 PM,48.9,39.0,69,29.91,10.0,West,11.5,21.9,N/A,,Overcast,280,2013-10-18 18:53:00
2:53 PM,51.1,39.9,66,29.90,10.0,West,8.1,-,N/A,,Overcast,260,2013-10-18 19:53:00
3:53 PM,50.0,39.0,66,29.91,10.0,WSW,11.5,-,N/A,,Overcast,250,2013-10-18 20:53:00
4:22 PM,48.2,39.2,71,29.90,10.0,West,9.2,-,N/A,,Overcast,260,2013-10-18 21:22:00
4:53 PM,48.0,39.0,71,29.93,10.0,West,9.2,-,N/A,,Overcast,270,2013-10-18 21:53:00
5:12 PM,48.2,39.2,71,29.92,10.0,West,8.1,-,N/A,,Overcast,280,2013-10-18 22:12:00
5:30 PM,48.2,37.4,66,29.92,10.0,West,10.4,-,N/A,,Overcast,270,2013-10-18 22:30:00
5:53 PM,48.0,37.9,68,29.94,10.0,West,6.9,-,N/A,,Overcast,260,2013-10-18 22:53:00
6:22 PM,46.4,37.4,71,29.94,10.0,West,6.9,-,N/A,,Overcast,270,2013-10-18 23:22:00
6:53 PM,46.9,37.0,68,29.96,10.0,West,6.9,-,N/A,,Overcast,270,2013-10-18 23:53:00
7:53 PM,46.9,37.0,68,29.96,10.0,WSW,5.8,-,N/A,,Overcast,250,2013-10-19 00:53:00
8:53 PM,46.0,37.0,71,29.96,10.0,West,6.9,-,N/A,,Overcast,260,2013-10-19 01:53:00
9:53 PM,45.0,36.0,71,29.95,10.0,West,5.8,-,N/A,,Scattered Clouds,260,2013-10-19 02:53:00
10:53 PM,44.1,36.0,73,29.95,10.0,WSW,4.6,-,N/A,,Partly Cloudy,240,2013-10-19 03:53:00
11:53 PM,44.1,36.0,73,29.94,10.0,WSW,4.6,-,N/A,,Scattered Clouds,250,2013-10-19 04:53:00